Maple Lake, MN

7:03 PM CST on February 24, 2018 (GMT -0600)
Maple Lake Municipal

Weather History for KMGG - October, 2012

Change the Weather History Date:

Wednesday, October 3, 2012

  Actual Average (KSTC) Record (KSTC)
Temperature  
Mean Temperature 58 °F -  
Max Temperature 76 °F 62 °F 88 °F (1922)
Min Temperature 39 °F 38 °F 20 °F (1996)
Degree Days  
Heating Degree Days 8    
Growing Degree Days 8 (Base 50)    
Moisture  
Dew Point 39 °F    
Average Humidity 53    
Maximum Humidity 93    
Minimum Humidity 21    
Precipitation  
Precipitation 0.00 in - - ()
Sea Level Pressure  
Sea Level Pressure 29.87 in    
Wind  
Wind Speed 3 mph (SSE)    
Max Wind Speed 9 mph    
Max Gust Speed -    
Visibility 10 miles    
Events      
Averages and records for this station are not official NWS values.
T = Trace of Precipitation, MM = Missing Value Source: NWS Daily Summary

Daily Weather History Graph

Daily Weather History Graph

Search for Another Location

Airport or City:

Trip Planner

Search our weather history database for the weather conditions in past years. The results will help you decide how hot, cold, wet, or windy it might be!

Date:

Astronomy

Oct. 03, 2012 Rise Set
Actual Time 7:17 AM CDT 6:51 PM CDT
Civil Twilight 6:47 AM CDT 7:20 PM CDT
Nautical Twilight 6:13 AM CDT 7:55 PM CDT
Astronomical Twilight 5:39 AM CDT 8:29 PM CDT
Moon 8:32 PM CDT (10/3) 10:52 AM CDT (10/3)
Length of Visible Light 12h 33m
Length of Day
11h 34m
Waning Gibbous, 88% of the Moon is Illuminated
Oct 3
Waning Gibbous
Oct 8
Last Quarter
Oct 15
New
Oct 21
First Quarter
Oct 29
Full

Hourly Weather History & Observations

Time (CDT) Temp. Windchill Dew Point Humidity Pressure Visibility Wind Dir Wind Speed Gust Speed Precip Events Conditions
12:14 AM 50.4 °F - 39.0 °F 65% 29.87 in 10.0 mi Calm Calm - N/A   Clear
12:34 AM 52.2 °F - 39.2 °F 61% 29.87 in 10.0 mi SSE 3.5 mph - N/A   Clear
12:54 AM 49.8 °F - 38.5 °F 65% 29.88 in 10.0 mi Calm Calm - N/A   Clear
1:14 AM 43.0 °F - 38.1 °F 83% 29.88 in 10.0 mi Calm Calm - N/A   Clear
1:34 AM 46.2 °F 45.0 °F 39.7 °F 78% 29.88 in 10.0 mi SSE 3.5 mph - N/A   Clear
1:54 AM 47.1 °F - 41.0 °F 79% 29.88 in 10.0 mi SSE 3.5 mph - N/A   Clear
2:14 AM 47.3 °F - 39.6 °F 74% 29.89 in 10.0 mi SSE 3.5 mph - N/A   Clear
2:34 AM 41.5 °F - 38.7 °F 89% 29.89 in 10.0 mi Calm Calm - N/A   Clear
2:54 AM 41.9 °F - 38.7 °F 88% 29.88 in 10.0 mi Calm Calm - N/A   Clear
3:14 AM 44.1 °F 42.5 °F 40.1 °F 86% 29.88 in 10.0 mi SSE 3.5 mph - N/A   Clear
3:34 AM 45.3 °F 44.0 °F 39.9 °F 81% 29.88 in 10.0 mi SSE 3.5 mph - N/A   Clear
3:54 AM 45.7 °F 43.4 °F 39.4 °F 79% 29.88 in 10.0 mi SSE 4.6 mph - N/A   Clear
4:14 AM 45.9 °F 44.6 °F 39.7 °F 79% 29.88 in 10.0 mi SSE 3.5 mph - N/A   Clear
4:34 AM 46.8 °F - 38.5 °F 73% 29.88 in 10.0 mi South 4.6 mph - N/A   Clear
4:54 AM 44.4 °F 42.0 °F 37.6 °F 77% 29.88 in 10.0 mi SSE 4.6 mph - N/A   Clear
5:14 AM 41.2 °F 39.2 °F 36.7 °F 84% 29.89 in 10.0 mi South 3.5 mph - N/A   Clear
5:34 AM 41.2 °F - 36.1 °F 82% 29.89 in 10.0 mi Calm Calm - N/A   Clear
5:54 AM 40.3 °F - 38.3 °F 93% 29.89 in 10.0 mi Calm Calm - N/A   Clear
6:14 AM 39.0 °F - 36.1 °F 89% 29.89 in 10.0 mi Calm Calm - N/A   Clear
6:34 AM 40.5 °F - 36.1 °F 85% 29.89 in 10.0 mi Calm Calm - N/A   Clear
6:54 AM 42.4 °F 39.6 °F 37.6 °F 83% 29.90 in 10.0 mi SSE 4.6 mph - N/A   Clear
7:13 AM 43.7 °F 41.1 °F 38.3 °F 81% 29.90 in 10.0 mi SSE 4.6 mph - N/A   Clear
7:34 AM 43.9 °F 41.3 °F 38.3 °F 81% 29.90 in 10.0 mi South 4.6 mph - N/A   Clear
7:54 AM 45.9 °F 42.9 °F 37.9 °F 74% 29.90 in 10.0 mi South 5.8 mph - N/A   Clear
8:13 AM 46.8 °F - 38.3 °F 72% 29.91 in 10.0 mi South 4.6 mph - N/A   Clear
8:34 AM 48.9 °F - 39.4 °F 70% 29.91 in 10.0 mi Calm Calm - N/A   Clear
8:54 AM 51.4 °F - 39.9 °F 65% 29.90 in 10.0 mi South 4.6 mph - N/A   Clear
9:14 AM 53.2 °F - 40.5 °F 62% 29.90 in 10.0 mi SSE 3.5 mph - N/A   Clear
9:34 AM 55.6 °F - 40.8 °F 58% 29.90 in 10.0 mi Calm Calm - N/A   Clear
9:54 AM 58.3 °F - 39.9 °F 50% 29.90 in 10.0 mi South 5.8 mph - N/A   Clear
10:14 AM 61.0 °F - 39.6 °F 45% 29.90 in 10.0 mi SSE 4.6 mph - N/A   Clear
10:34 AM 63.0 °F - 38.7 °F 41% 29.90 in 10.0 mi South 4.6 mph - N/A   Clear
10:54 AM 65.1 °F - 38.3 °F 37% 29.90 in 10.0 mi South 4.6 mph - N/A   Clear
11:14 AM 67.1 °F - 38.1 °F 34% 29.90 in 10.0 mi Calm Calm - N/A   Clear
11:34 AM 68.7 °F - 38.3 °F 33% 29.90 in 10.0 mi SE 5.8 mph - N/A   Clear
11:54 AM 70.0 °F - 38.5 °F 32% 29.89 in 10.0 mi South 6.9 mph - N/A   Clear
12:14 PM 71.2 °F - 37.2 °F 29% 29.89 in 10.0 mi SSE 5.8 mph - N/A   Clear
12:34 PM 72.3 °F - 36.1 °F 27% 29.88 in 10.0 mi South 6.9 mph - N/A   Clear
12:54 PM 73.2 °F - 36.3 °F 26% 29.88 in 10.0 mi SSE 9.2 mph - N/A   Clear
1:14 PM 73.9 °F - 36.3 °F 25% 29.87 in 10.0 mi SSE 6.9 mph - N/A   Clear
1:34 PM 74.3 °F - 35.6 °F 24% 29.86 in 10.0 mi SSE 6.9 mph - N/A   Clear
1:54 PM 74.8 °F - 34.5 °F 23% 29.85 in 10.0 mi SSE 5.8 mph - N/A   Clear
2:14 PM 74.8 °F - 33.8 °F 22% 29.85 in 10.0 mi SSE 8.1 mph - N/A   Clear
2:34 PM 75.2 °F - 34.2 °F 22% 29.84 in 10.0 mi SE 6.9 mph - N/A   Clear
2:54 PM 75.4 °F - 34.0 °F 22% 29.84 in 10.0 mi SSE 6.9 mph - N/A   Clear
3:14 PM 75.4 °F - 32.9 °F 21% 29.84 in 10.0 mi South 9.2 mph - N/A   Clear
3:34 PM 74.1 °F - 34.3 °F 23% 29.84 in 10.0 mi SSE 5.8 mph - N/A   Clear
3:54 PM 76.1 °F - 34.0 °F 22% 29.84 in 10.0 mi South 8.1 mph - N/A   Clear
4:14 PM 75.7 °F - 35.1 °F 23% 29.83 in 10.0 mi SSE 4.6 mph - N/A   Clear
4:34 PM 74.3 °F - 34.7 °F 24% 29.83 in 10.0 mi SE 5.8 mph - N/A   Clear
4:53 PM 74.5 °F - 36.1 °F 25% 29.83 in 10.0 mi SE 8.1 mph - N/A   Clear
5:14 PM 73.4 °F - 36.5 °F 26% 29.84 in 10.0 mi SE 3.5 mph - N/A   Clear
5:34 PM 74.3 °F - 37.9 °F 27% 29.84 in 10.0 mi ESE 3.5 mph - N/A   Clear
5:54 PM 72.5 °F - 38.7 °F 29% 29.84 in 10.0 mi SE 3.5 mph - N/A   Clear
6:14 PM 71.4 °F - 39.7 °F 32% 29.84 in 10.0 mi ESE 3.5 mph - N/A   Clear
6:34 PM 69.3 °F - 41.0 °F 36% 29.85 in 3.0 mi Calm Calm - N/A   Haze
6:54 PM 67.3 °F - 41.2 °F 39% 29.84 in 5.0 mi East 4.6 mph - N/A   Haze
7:14 PM 67.3 °F - 42.8 °F 41% 29.84 in 7.0 mi East 5.8 mph - N/A   Clear
7:34 PM 67.1 °F - 43.2 °F 42% 29.84 in 10.0 mi ESE 4.6 mph - N/A   Clear
7:54 PM 66.9 °F - 42.6 °F 41% 29.85 in 7.0 mi Calm Calm - N/A   Clear
8:14 PM 65.1 °F - 44.1 °F 46% 29.85 in 7.0 mi ESE 3.5 mph - N/A   Clear
8:34 PM 65.5 °F - 43.2 °F 44% 29.84 in 7.0 mi ESE 3.5 mph - N/A   Clear
8:54 PM 64.0 °F - 45.9 °F 52% 29.84 in 10.0 mi ESE 3.5 mph - N/A   Clear
9:14 PM 63.5 °F - 45.7 °F 52% 29.84 in 10.0 mi SE 3.5 mph - N/A   Clear
9:34 PM 63.7 °F - 45.5 °F 52% 29.85 in 10.0 mi SE 3.5 mph - N/A   Clear
10:14 PM 63.0 °F - 46.9 °F 56% 29.84 in 10.0 mi SE 3.5 mph - N/A   Clear
10:34 PM 62.6 °F - 46.6 °F 56% 29.84 in 10.0 mi SE 4.6 mph - N/A   Clear
10:54 PM 62.6 °F - 46.8 °F 56% 29.83 in 10.0 mi SE 4.6 mph - N/A   Clear
11:14 PM 62.8 °F - 45.3 °F 53% 29.83 in 10.0 mi SE 4.6 mph - N/A   Clear
11:34 PM 61.7 °F - 44.6 °F 53% 29.82 in 10.0 mi SSE 4.6 mph - N/A   Clear
11:54 PM 61.2 °F - 44.6 °F 54% 29.81 in 10.0 mi SSE 4.6 mph - N/A   Clear